Location: Deuil
(48.9767°N, 2.3272°E)
Time: 00:15:10
(UTC+00:00)

DELTA 1 DEB - Visible Passes

Search period start: 15 August 2022 00:00
Search period end: 25 August 2022 00:00
Orbit: 734 x 889 km, 97.8° (Epoch: 14 August)

Date Brightness Start Highest point End Pass type
(mag) Time Alt. Az. Time Alt. Az. Time Alt. Az.
15 Aug ? 00:12:03 59° E 00:12:26 61° ENE 00:17:37 10° N visible
15 Aug ? 01:53:14 20° W 01:53:14 20° W 01:56:48 10° NW visible
15 Aug ? 23:48:42 38° E 23:49:24 40° ENE 23:54:18 10° N visible
16 Aug ? 01:29:53 31° W 01:29:53 31° W 01:34:11 10° NNW visible
16 Aug ? 23:25:20 25° E 23:26:26 28° ENE 23:30:50 10° N visible
17 Aug ? 01:06:32 48° W 01:06:32 48° W 01:11:19 10° NNW visible
17 Aug ? 23:01:59 17° E 23:03:33 19° ENE 23:07:13 10° NNE visible
18 Aug ? 00:43:11 74° WNW 00:43:11 74° WNW 00:48:17 10° NNW visible
18 Aug ? 02:24:22 11° WNW 02:24:22 11° WNW 02:25:26 10° WNW visible
18 Aug ? 22:38:38 11° ENE 22:40:44 14° NE 22:43:14 10° NNE visible
19 Aug ? 00:19:50 72° ENE 00:19:50 72° ENE 00:25:07 10° N visible
19 Aug ? 02:01:01 17° WNW 02:01:01 17° WNW 02:03:57 10° NW visible
19 Aug ? 23:56:29 47° ENE 23:56:42 48° ENE 00:01:50 10° N visible
20 Aug ? 01:37:40 26° WNW 01:37:40 26° WNW 01:41:29 10° NW visible
20 Aug ? 23:33:08 31° ENE 23:33:43 32° ENE 23:38:27 10° N visible
21 Aug ? 01:14:19 39° WNW 01:14:19 39° WNW 01:18:41 10° NNW visible
21 Aug ? 23:09:47 21° ENE 23:10:48 23° ENE 23:14:55 10° N visible
22 Aug ? 00:50:58 59° WNW 00:50:58 59° WNW 00:55:43 10° NNW visible
22 Aug ? 22:46:26 14° ENE 22:47:58 16° NE 22:51:09 10° NNE visible
23 Aug ? 00:27:38 74° N 00:27:38 74° N 00:32:36 10° NNW visible
23 Aug ? 02:08:49 15° WNW 02:08:49 15° WNW 02:11:02 10° NW visible
23 Aug ? 22:23:45 10° ENE 22:25:13 11° NE 22:26:41 10° NNE visible
24 Aug ? 00:04:17 56° ENE 00:04:17 56° ENE 00:09:22 10° N visible
24 Aug ? 01:45:29 22° WNW 01:45:29 22° WNW 01:48:46 10° NW visible
24 Aug ? 23:40:57 38° ENE 23:41:02 38° ENE 23:46:02 10° N visible
